Temp
60 60 60 60 61 62 62 61 61 61 61 61 61 60 60 60 60 58 58 59 59 59 59 59 59 59 59 60 60 61 61 60 61 62 61 60 61 60 59 59 60 62
58 59 60 60 60 61 62 61 61 61 61 61 62 62 61 60 59 58 58 58 58 58 59 59 59 59 59 60 59 59 60 60 59 60 60 59 60 60 59 59 59 61
56 57 58 58 59 59 60 60 61 61 61 61 61 61 60 59 58 58 58 58 58 58 58 59 59 59 58 59 58 59 60 59 59 59 59 59 60 60 60 59 59 59
56 57 57 58 59 59 59 59 59 60 61 60 60 60 60 57 58 57 57 56 58 58 58 58 58 58 58 58 58 59 59 59 60 60 58 59 59 60 60 60 59 59
56 56 57 58 58 59 59 58 58 59 59 60 60 59 59 57 57 57 57 56 57 57 57 57 57 58 58 58 58 58 59 59 59 59 58 58 59 58 59 59 58 57
56 57 57 57 58 58 58 58 58 58 59 58 59 59 59 58 57 56 56 56 56 57 56 57 57 57 57 57 57 58 58 58 59 58 57 57 58 58 57 58 58 57
55 55 55 57 57 57 57 58 58 58 59 60 59 58 58 57 57 57 57 56 56 56 56 56 56 56 56 57 56 57 58 58 58 57 56 57 58 57 56 56 57 57
55 55 56 56 56 56 56 57 58 58 58 59 58 58 58 57 58 57 57 57 56 56 56 56 56 56 56 56 56 56 56 56 56 56 56 56 57 56 56 55 56 56
55 55 54 54 54 55 55 56 57 58 58 57 58 58 58 58 57 57 57 57 56 56 56 56 56 56 56 55 55 55 56 55 55 55 55 55 55 56 56 55 55 55
54 55 54 54 54 55 55 56 56 57 56 57 57 58 56 57 58 57 56 56 56 56 56 56 55 56 55 55 55 55 56 55 55 55 55 56 56 56 56 55 55 54
54 54 53 53 54 55 55 55 55 56 56 56 56 56 57 56 56 57 56 56 55 55 55 55 55 55 55 54 55 56 56 56 55 55 55 56 56 56 52 55 55 55
53 53 53 53 54 55 55 55 55 55 55 54 56 56 56 56 56 55 55 55 56 56 56 56 56 55 55 55 55 55 55 56 56 55 55 55 56 56 56 56 55 55
53 53 53 54 54 54 55 55 54 54 54 54 54 55 55 55 55 55 55 55 56 56 55 55 55 55 55 54 54 54 55 55 55 54 54 54 55 56 56 56 55 55
53 54 54 54 54 54 54 54 54 53 53 54 54 54 54 54 54 54 55 55 55 55 55 55 55 54 54 54 54 54 54 54 54 53 53 53 53 54 55 55 55 55
54 54 53 53 52 52 52 52 52 52 52 53 53 53 53 54 55 54 54 53 54 54 54 54 53 53 53 54 53 53 54 53 53 53 53 52 52 53 53 53 54 54
54 53 52 51 51 51 51 51 51 51 51 51 51 52 52 53 53 53 53 53 52 53 53 52 52 52 47 45 46 53 53 53 52 52 52 52 52 51 51 52 52 53
52 51 50 49 50 50 50 49 49 49 49 49 49 49 50 50 51 51 51 52 52 52 51 51 50 50 42 43 44 45 51 53 52 52 52 52 52 51 50 50 50 51
50 49 48 48 47 48 48 48 48 47 47 47 47 47 48 49 48 49 50 50 51 51 51 50 50 43 42 42 43 43 44 52 53 52 51 51 51 51 51 50 49 48
49 48 47 47 47 47 47 47 47 46 46 46 46 47 47 46 47 47 48 49 49 49 49 49 49 42 41 41 42 42 42 46 52 52 51 51 51 50 50 49 49 47
47 47 47 47 46 46 46 46 45 46 46 47 47 46 46 46 46 47 47 47 47 48 48 48 48 41 40 41 41 41 42 45 51 50 50 50 49 49 49 49 48 48
46 46 46 45 45 44 43 44 44 45 44 45 46 46 45 46 46 46 46 46 46 47 47 45 45 39 40 40 41 41 41 43 49 47 48 48 48 47 47 47 47 47
44 44 44 43 41 40 39 41 41 42 41 41 43 45 46 46 45 46 43 42 43 43 42 41 40 37 39 40 40 41 41 46 47 47 46 45 44 45 45 46 46 47
41 41 41 40 38 37 38 39 39 39 39 40 40 41 40 40 40 41 41 39 38 40 40 39 39 38 38 39 40 41 41 44 43 41 40 39 39 40 42 43 44 45
37 38 38 37 37 37 38 38 39 39 39 39 39 38 39 39 39 38 38 39 39 39 40 38 37 35 37 39 39 40 40 40 40 40 38 37 37 39 40 40 37 34
35 36 37 36 36 37 38 37 38 37 37 38 38 39 38 38 38 38 37 38 38 38 34 36 36 35 37 38 38 38 39 41 40 40 37 37 36 37 38 38 38 36
35 35 35 36 36 36 36 36 36 36 36 37 37 37 37 37 37 37 36 36 37 37 37 37 35 35 36 36 37 38 39 41 41 39 37 36 37 36 35 37 38 37
MSLP
1001.09 1001.21 1001.37 1001.53 1001.61 1001.61 1001.89 1002.09 1002.17 1002.33 1002.53 1002.61 1002.73 1002.93 1003.13 1003.41 1003.73 1004.05 1004.37 1004.61 1004.85 1005.13 1005.37 1005.61 1005.93 1006.21 1006.45 1006.73 1006.97 1007.17 1007.33 1007.61 1007.81 1007.97 1008.21 1008.41 1008.57 1008.77 1009.09 1009.33 1009.45 1009.45
1001.13 1001.21 1001.29 1001.41 1001.49 1001.61 1001.69 1001.85 1002.01 1002.13 1002.25 1002.41 1002.41 1002.57 1002.85 1003.17 1003.53 1003.81 1004.13 1004.45 1004.73 1004.93 1005.17 1005.41 1005.65 1005.93 1006.21 1006.45 1006.73 1006.97 1007.13 1007.37 1007.61 1007.77 1008.01 1008.25 1008.33 1008.61 1008.85 1009.05 1009.29 1009.37
1001.13 1001.25 1001.29 1001.33 1001.37 1001.49 1001.69 1001.85 1001.97 1002.09 1002.09 1002.21 1002.33 1002.45 1002.69 1003.01 1003.33 1003.65 1003.93 1004.21 1004.45 1004.69 1004.93 1005.17 1005.45 1005.65 1005.93 1006.17 1006.49 1006.73 1006.81 1007.05 1007.29 1007.53 1007.77 1008.01 1008.09 1008.29 1008.45 1008.77 1009.01 1009.25
1000.97 1001.01 1001.09 1001.21 1001.29 1001.41 1001.65 1001.85 1001.97 1002.01 1002.05 1002.17 1002.29 1002.41 1002.57 1002.93 1003.17 1003.49 1003.77 1004.09 1004.25 1004.49 1004.73 1004.97 1005.21 1005.45 1005.69 1005.93 1006.21 1006.37 1006.53 1006.69 1006.85 1007.17 1007.53 1007.69 1007.85 1008.01 1008.21 1008.45 1008.73 1009.01
1000.69 1000.85 1000.97 1001.05 1001.17 1001.33 1001.53 1001.73 1001.77 1001.81 1001.85 1001.85 1002.01 1002.25 1002.45 1002.77 1003.09 1003.33 1003.61 1003.85 1004.05 1004.25 1004.49 1004.73 1005.01 1005.21 1005.49 1005.73 1005.93 1006.09 1006.25 1006.41 1006.65 1006.89 1007.17 1007.37 1007.53 1007.81 1007.97 1008.21 1008.49 1008.77
1000.57 1000.65 1000.77 1000.89 1001.01 1001.21 1001.37 1001.45 1001.45 1001.53 1001.57 1001.65 1001.69 1001.93 1002.17 1002.45 1002.73 1003.01 1003.29 1003.57 1003.77 1003.97 1004.21 1004.45 1004.73 1004.97 1005.21 1005.41 1005.69 1005.77 1005.93 1006.09 1006.29 1006.65 1006.93 1007.09 1007.25 1007.53 1007.77 1007.97 1008.21 1008.49
1000.41 1000.53 1000.61 1000.73 1000.89 1001.01 1001.09 1001.13 1001.13 1001.21 1001.25 1001.29 1001.49 1001.69 1001.89 1002.21 1002.41 1002.65 1002.89 1003.17 1003.45 1003.65 1003.89 1004.13 1004.37 1004.65 1004.89 1005.13 1005.37 1005.49 1005.61 1005.77 1006.01 1006.41 1006.65 1006.77 1006.93 1007.29 1007.57 1007.77 1007.89 1008.13
1000.25 1000.33 1000.41 1000.53 1000.69 1000.81 1000.81 1000.73 1000.73 1000.81 1000.93 1001.13 1001.29 1001.49 1001.69 1001.93 1002.13 1002.41 1002.61 1002.89 1003.13 1003.33 1003.53 1003.77 1004.01 1004.25 1004.49 1004.73 1004.97 1005.17 1005.37 1005.53 1005.73 1006.09 1006.37 1006.53 1006.65 1006.93 1007.25 1007.49 1007.69 1007.85
999.93 1000.09 1000.17 1000.29 1000.33 1000.33 1000.45 1000.41 1000.45 1000.53 1000.69 1000.85 1001.01 1001.21 1001.53 1001.69 1001.89 1002.13 1002.41 1002.61 1002.85 1003.01 1003.17 1003.41 1003.57 1003.81 1004.05 1004.29 1004.49 1004.73 1004.89 1005.21 1005.41 1005.69 1005.97 1006.13 1006.33 1006.45 1006.81 1007.17 1007.53 1007.61
999.77 999.77 999.97 999.97 999.93 999.73 999.81 999.93 1000.09 1000.29 1000.41 1000.61 1000.77 1000.97 1001.25 1001.49 1001.69 1001.89 1002.13 1002.33 1002.49 1002.69 1002.81 1002.97 1003.21 1003.41 1003.65 1003.85 1004.05 1004.25 1004.45 1004.69 1005.05 1005.33 1005.53 1005.69 1005.85 1006.05 1006.37 1006.77 1007.01 1007.33
999.37 999.49 999.57 999.53 999.41 999.25 999.25 999.45 999.73 1000.01 1000.25 1000.41 1000.57 1000.69 1000.89 1001.17 1001.45 1001.61 1001.81 1001.97 1002.09 1002.17 1002.37 1002.53 1002.73 1002.97 1003.25 1003.49 1003.69 1003.85 1004.05 1004.29 1004.61 1004.93 1005.17 1005.33 1005.49 1005.65 1005.97 1006.29 1006.61 1006.77
998.97 999.05 999.05 999.01 999.01 999.01 999.01 999.09 999.33 999.65 999.93 1000.21 1000.29 1000.37 1000.61 1000.77 1000.97 1001.21 1001.37 1001.49 1001.65 1001.77 1001.93 1002.13 1002.37 1002.57 1002.81 1003.09 1003.33 1003.61 1003.81 1004.01 1004.25 1004.57 1004.85 1005.05 1005.21 1005.37 1005.61 1005.89 1006.17 1006.41
998.57 998.53 998.57 998.65 998.73 998.81 998.93 999.05 999.13 999.33 999.61 999.89 1000.01 1000.09 1000.25 1000.45 1000.61 1000.77 1000.97 1001.09 1001.25 1001.41 1001.57 1001.77 1002.01 1002.25 1002.53 1002.81 1003.09 1003.33 1003.57 1003.81 1004.05 1004.33 1004.61 1004.85 1005.01 1005.17 1005.37 1005.61 1005.89 1006.13
998.17 998.29 998.37 998.41 998.53 998.69 998.89 999.01 999.13 999.25 999.41 999.65 999.89 1000.09 1000.13 1000.21 1000.33 1000.49 1000.69 1000.89 1001.01 1001.17 1001.33 1001.53 1001.77 1002.05 1002.29 1002.57 1002.85 1003.09 1003.37 1003.65 1003.85 1004.13 1004.41 1004.69 1004.89 1005.09 1005.25 1005.45 1005.65 1005.85
997.89 998.05 998.13 998.29 998.49 998.65 998.81 998.97 999.09 999.21 999.37 999.57 999.81 999.97 1000.05 1000.13 1000.25 1000.45 1000.65 1000.89 1001.01 1001.13 1001.33 1001.49 1001.61 1001.77 1001.93 1002.17 1002.53 1002.85 1003.09 1003.41 1003.65 1003.93 1004.17 1004.45 1004.73 1004.97 1005.13 1005.33 1005.53 1005.69
997.49 997.69 998.01 998.25 998.41 998.49 998.57 998.77 998.93 999.05 999.25 999.45 999.61 999.77 999.93 1000.05 1000.17 1000.37 1000.49 1000.65 1000.89 1001.05 1001.21 1001.37 1001.49 1001.53 1001.77 1002.05 1002.25 1002.45 1002.81 1003.13 1003.45 1003.73 1004.01 1004.25 1004.57 1004.81 1005.09 1005.25 1005.41 1005.61
997.37 997.57 997.89 998.17 998.21 998.33 998.41 998.61 998.81 998.93 999.09 999.29 999.49 999.73 999.85 1000.01 1000.17 1000.29 1000.37 1000.45 1000.57 1000.77 1000.97 1001.13 1001.29 1001.37 1001.77 1002.13 1002.37 1002.53 1002.61 1002.85 1003.17 1003.49 1003.77 1004.05 1004.29 1004.57 1004.85 1005.17 1005.41 1005.57
997.33 997.49 997.77 997.89 998.09 998.21 998.29 998.49 998.65 998.81 998.93 999.09 999.33 999.53 999.73 999.93 1000.09 1000.05 1000.17 1000.29 1000.37 1000.53 1000.73 1000.89 1001.05 1001.33 1001.77 1002.09 1002.41 1002.61 1002.73 1002.73 1002.93 1003.21 1003.57 1003.81 1004.05 1004.29 1004.53 1004.93 1005.29 1005.61
997.33 997.41 997.49 997.65 997.77 997.97 998.17 998.45 998.57 998.69 998.73 998.89 999.05 999.13 999.41 999.65 999.73 999.93 1000.01 1000.13 1000.29 1000.37 1000.53 1000.73 1000.93 1001.21 1001.57 1001.89 1002.21 1002.45 1002.69 1002.73 1002.69 1002.93 1003.25 1003.49 1003.73 1004.01 1004.25 1004.57 1004.93 1005.33
997.45 997.49 997.45 997.49 997.65 997.85 998.09 998.33 998.45 998.41 998.45 998.69 998.97 999.21 999.37 999.41 999.49 999.57 999.77 999.97 1000.13 1000.17 1000.33 1000.49 1000.69 1001.05 1001.37 1001.65 1001.89 1002.17 1002.45 1002.57 1002.45 1002.69 1002.97 1003.21 1003.53 1003.81 1004.05 1004.29 1004.57 1004.89
997.49 997.49 997.49 997.65 997.85 998.01 998.21 998.33 998.37 998.41 998.53 998.69 998.85 999.05 999.17 999.21 999.25 999.37 999.53 999.77 999.97 1000.09 1000.25 1000.57 1000.69 1001.01 1001.21 1001.41 1001.65 1001.93 1002.25 1002.45 1002.49 1002.81 1003.01 1003.29 1003.57 1003.81 1004.05 1004.25 1004.49 1004.73
997.49 997.53 997.61 997.89 998.25 998.49 998.61 998.57 998.57 998.57 998.77 999.01 999.05 998.97 999.05 999.21 999.37 999.45 999.81 1000.01 1000.17 1000.37 1000.61 1000.81 1000.97 1001.21 1001.21 1001.33 1001.53 1001.81 1002.25 1002.41 1002.57 1002.85 1003.17 1003.57 1003.89 1004.09 1004.25 1004.49 1004.69 1004.77
997.85 997.81 997.89 998.17 998.45 998.61 998.61 998.61 998.65 998.77 998.93 999.09 999.21 999.25 999.41 999.57 999.69 999.85 1000.05 1000.29 1000.49 1000.61 1000.69 1000.93 1001.09 1001.21 1001.25 1001.33 1001.49 1001.81 1002.17 1002.41 1002.81 1003.29 1003.77 1004.13 1004.49 1004.65 1004.69 1004.77 1004.93 1004.97
998.53 998.41 998.29 998.37 998.49 998.49 998.45 998.49 998.65 998.81 998.89 999.13 999.13 999.33 999.49 999.69 999.93 1000.25 1000.45 1000.53 1000.65 1000.69 1000.73 1000.93 1001.17 1001.25 1001.25 1001.33 1001.45 1001.69 1001.97 1002.41 1002.81 1003.25 1003.81 1004.25 1004.61 1004.77 1004.89 1005.13 1005.37 1005.37
998.69 998.65 998.57 998.57 998.57 998.45 998.45 998.49 998.61 998.73 998.97 999.21 999.29 999.45 999.73 1000.01 1000.17 1000.37 1000.65 1000.85 1001.01 1001.17 1001.29 1001.29 1001.49 1001.49 1001.37 1001.37 1001.53 1001.77 1001.97 1002.25 1002.57 1003.01 1003.57 1004.09 1004.45 1004.81 1005.01 1005.21 1005.49 1005.61
998.65 998.81 998.89 998.89 998.77 998.69 998.73 998.77 998.85 999.01 999.17 999.29 999.57 999.73 999.93 1000.13 1000.33 1000.49 1000.81 1001.17 1001.33 1001.41 1001.57 1001.69 1001.81 1001.85 1001.81 1001.77 1001.85 1001.97 1002.01 1002.13 1002.45 1002.81 1003.33 1003.85 1004.13 1004.49 1004.97 1005.29 1005.49 1005.77
Wind_Speed
7 7 7 7 8 7 7 7 7 7 7 7 7 8 8 8 9 11 11 10 10 11 11 11 11 11 9 10 10 9 9 10 9 9 10 10 9 10 9 11 11 9
8 7 6 6 6 6 6 7 7 7 7 7 6 6 6 7 8 10 10 10 10 11 11 11 11 11 11 10 10 10 9 9 10 7 9 11 9 10 10 11 11 9
8 8 8 9 8 8 7 6 6 7 7 7 6 6 6 6 8 9 9 10 10 11 11 11 11 11 11 11 10 10 9 10 11 9 9 10 9 9 10 10 9 11
9 9 8 8 8 7 7 7 7 7 6 6 7 6 5 5 7 9 9 11 9 10 10 11 11 10 11 11 11 10 10 10 10 9 10 9 9 9 9 9 9 9
9 8 8 8 8 7 7 8 9 8 8 7 7 7 6 7 7 8 8 9 10 10 10 11 11 11 11 11 11 10 10 9 9 9 10 10 9 9 8 9 9 10
7 7 8 8 8 8 8 9 9 9 8 8 8 7 7 8 8 9 9 10 9 10 10 11 11 11 11 11 10 11 9 9 9 10 10 10 9 9 7 8 9 10
8 8 9 8 9 9 9 9 9 8 8 8 6 7 8 9 9 9 10 10 11 11 11 11 11 11 10 11 11 11 10 10 9 11 11 10 9 10 9 9 10 10
9 8 8 8 9 9 10 10 9 9 9 8 8 8 8 9 10 9 9 11 11 11 12 12 12 12 11 11 11 12 11 8 9 11 11 11 10 10 10 8 9 10
8 8 8 10 11 10 11 10 9 9 8 9 8 7 8 8 9 9 10 11 11 11 12 12 13 12 12 12 12 13 12 10 10 11 12 12 12 11 11 9 10 10
9 8 9 10 11 10 11 11 9 8 8 9 9 8 8 8 9 10 10 11 11 11 12 11 12 12 12 12 13 13 13 13 12 12 12 12 12 11 11 11 11 10
9 8 9 10 11 9 11 11 10 9 8 9 9 9 9 9 9 9 10 11 10 12 12 12 12 12 12 12 12 12 13 12 12 12 12 12 12 11 11 11 11 11
8 8 10 11 10 9 10 10 9 9 9 9 10 10 10 10 10 10 10 11 11 11 11 11 11 11 12 12 12 12 12 11 11 11 12 11 11 11 11 11 11 11
9 10 9 9 9 9 7 8 9 9 10 10 10 11 10 10 10 11 10 11 11 10 11 11 11 11 11 11 11 11 12 11 11 11 10 10 10 11 10 10 10 10
9 8 8 8 7 7 7 8 8 8 9 9 8 10 10 10 11 11 9 9 10 10 10 9 10 10 10 10 10 11 10 11 10 10 10 9 9 10 10 9 10 10
7 7 7 6 6 6 7 8 8 8 8 8 8 8 7 8 8 8 9 9 8 8 9 8 9 9 9 10 11 11 10 10 11 10 10 10 10 10 9 9 9 9
8 6 6 6 7 8 8 8 8 8 8 8 8 9 8 8 8 8 9 10 9 9 9 7 8 7 9 13 11 9 10 8 8 9 10 9 9 9 9 9 9 8
6 6 6 8 8 7 7 8 8 7 7 8 8 8 8 7 7 9 9 9 10 10 10 8 7 6 11 13 13 11 9 9 9 9 9 9 9 9 8 8 7 7
7 7 7 8 7 8 8 8 7 8 9 9 8 9 8 7 9 9 9 8 8 8 9 8 7 8 12 12 12 12 10 8 8 8 8 8 8 8 7 7 7 7
7 7 8 8 8 8 7 7 8 8 8 9 10 9 8 9 9 8 9 8 8 9 8 7 6 11 13 14 14 14 14 10 7 8 8 9 8 8 8 8 7 7
6 7 7 7 6 7 7 7 8 9 8 7 6 7 8 8 9 10 8 8 8 8 8 7 7 11 14 15 15 16 15 13 8 8 8 8 8 8 7 8 8 8
6 6 6 5 5 6 7 8 8 7 8 8 8 8 9 8 9 9 7 7 7 7 6 6 5 10 13 15 16 16 16 13 6 6 6 6 7 5 6 6 7 6
5 5 5 4 6 7 8 9 9 9 9 8 8 8 8 7 6 7 8 8 8 8 8 7 5 8 12 14 15 15 15 9 8 8 8 7 7 7 7 5 4 7
3 4 5 6 6 7 8 8 8 8 7 6 7 7 7 7 7 6 6 6 7 7 8 6 5 6 10 12 13 15 12 9 8 7 7 7 7 6 6 6 5 7
3 4 6 6 7 8 8 7 6 5 6 6 8 7 7 6 6 6 5 5 6 7 7 7 5 5 10 12 15 15 12 9 8 9 9 8 8 7 7 6 6 7
2 2 4 5 6 6 6 7 7 6 5 5 5 6 7 7 7 7 7 6 5 6 6 7 6 5 9 13 15 15 11 10 10 10 10 9 9 9 8 8 8 7
2 1 2 3 4 3 4 4 5 5 6 6 6 6 7 7 7 8 8 7 7 7 6 6 6 5 6 10 12 13 13 11 10 12 11 11 11 11 10 9 10 9
Wind_Direction
194 195 196 197 205 207 191 194 194 192 194 196 197 193 193 191 183 185 189 190 191 191 191 188 186 187 187 185 186 190 190 191 193 192 192 190 199 193 192 196 202 206
198 197 196 198 205 204 200 198 197 198 199 199 200 190 188 181 183 181 185 189 191 194 190 190 189 189 185 187 185 189 190 191 193 184 187 191 197 195 198 196 200 205
197 197 201 202 206 202 199 199 202 205 206 202 196 194 183 177 176 182 186 190 192 193 193 192 190 189 187 188 182 190 193 190 194 185 191 193 198 198 201 196 200 199
202 201 203 206 207 202 197 198 204 207 205 198 198 192 181 172 178 181 188 191 194 193 192 191 190 188 188 188 184 194 195 194 194 182 189 195 199 198 197 193 196 197
197 198 203 204 206 204 197 200 204 205 202 202 189 184 182 176 182 185 187 188 195 193 191 191 191 191 189 190 189 195 194 195 191 185 189 195 195 194 196 191 192 196
202 201 200 201 200 198 203 207 208 203 201 199 196 183 185 182 185 185 187 187 192 194 191 190 191 192 189 191 189 199 193 195 190 185 192 195 194 192 189 192 192 196
202 197 200 200 202 202 205 207 208 205 205 204 189 192 184 187 189 188 188 190 188 192 191 189 190 190 188 190 191 197 198 197 186 184 193 199 195 191 191 191 196 198
205 201 199 196 199 202 207 207 205 201 200 195 199 195 190 191 191 189 190 190 190 191 192 191 191 190 186 189 192 194 195 190 186 186 194 199 196 194 190 190 194 198
201 199 197 197 197 201 207 208 206 202 193 196 198 195 194 196 194 192 190 190 191 192 191 193 192 191 189 190 193 193 195 191 191 189 192 196 198 198 189 185 191 199
204 201 199 200 202 204 201 202 202 201 194 199 197 196 192 196 199 195 191 191 193 193 193 191 191 191 189 193 193 194 196 195 193 194 195 199 199 196 189 187 193 193
208 201 203 206 209 206 201 195 197 198 195 197 197 199 193 192 196 197 194 193 195 194 193 193 192 191 190 192 195 196 197 194 193 194 198 200 201 198 193 189 191 196
211 205 211 212 210 210 203 195 191 194 196 199 201 200 195 196 193 194 197 199 198 197 194 193 191 193 193 192 194 194 197 197 194 194 197 199 201 198 196 193 192 195
212 212 211 213 210 210 203 197 195 194 195 200 200 203 196 195 197 195 196 199 199 196 196 193 191 192 192 191 193 194 196 197 196 194 194 197 200 199 197 193 195 194
217 216 217 215 209 204 202 202 198 196 199 200 197 204 204 200 198 197 194 197 199 198 196 192 190 189 191 191 192 193 193 198 196 192 194 195 197 199 198 197 196 196
219 217 218 213 206 207 206 205 203 200 197 198 200 206 208 206 202 196 193 195 200 198 195 193 195 194 192 188 189 191 192 193 194 194 193 194 196 199 199 197 197 200
224 218 218 219 209 207 205 202 199 194 192 199 202 206 208 203 200 197 199 197 196 198 199 196 200 200 190 187 186 184 186 187 188 192 191 193 191 194 197 197 198 197
224 219 201 213 215 208 201 193 195 188 189 194 197 199 201 195 197 199 200 197 198 196 198 201 203 202 185 191 194 188 183 184 187 190 191 193 193 193 192 190 194 197
222 211 205 210 200 208 201 196 192 187 191 193 193 195 197 192 199 203 198 196 197 196 198 197 201 176 176 187 190 191 191 187 184 184 185 191 191 192 188 182 183 182
221 213 210 204 200 197 194 187 193 192 190 189 196 192 180 188 196 192 197 197 196 198 200 192 196 171 181 183 187 186 188 193 188 186 182 189 187 186 184 179 179 177
228 220 216 209 193 189 185 193 196 198 192 190 183 180 188 190 190 191 189 190 194 196 193 186 193 173 183 183 184 183 181 187 191 180 181 183 182 182 180 180 179 179
219 216 218 202 192 191 196 205 202 196 193 192 193 191 191 193 190 186 183 183 185 190 184 185 198 174 185 182 182 180 177 183 177 159 168 182 185 170 174 175 173 169
217 210 207 188 202 204 205 208 204 198 191 184 188 193 196 192 186 188 185 185 184 185 187 190 194 189 189 182 178 175 164 178 175 174 178 170 166 176 185 168 152 178
239 223 211 205 202 202 206 204 199 194 188 170 178 179 171 173 169 166 163 157 156 168 169 160 156 179 184 177 170 157 154 165 153 142 132 132 125 127 134 149 146 166
276 238 216 203 200 204 204 200 187 177 171 168 173 166 164 156 140 131 128 138 147 151 159 143 131 147 166 165 155 151 151 145 141 136 130 124 121 114 116 107 76 83
300 241 226 212 210 209 200 185 174 166 149 146 153 147 139 134 135 130 122 114 111 111 96 110 114 117 143 150 148 148 148 149 145 143 137 135 127 121 117 115 108 85
55 225 241 235 223 187 156 153 140 133 145 141 131 137 135 137 129 129 122 115 110 109 100 101 102 101 118 136 146 151 152 150 154 148 146 142 142 137 128 124 119 113